Flag for Germany Weather for the Past 2 Weeks in Königs Wusterhausen, Brandenburg, Germany

Now
72 °F

Passing clouds.


Feels Like: 76 °F
Forecast: 54 / 72 °F
Wind: 13 mph from East

Location: Berlin-Schoenefeld

Current Time: May 6, 2016 at 6:57:39 PM

Latest Report: May 6, 2016 at 6:20 PM


Visibility: N/A

Pressure: 30.04 "Hg

Humidity: 29%

Dew Point: 37 °F

Location of Königs WusterhausenLocation

Historic Weather in Königs Wusterhausen — Graph

°F

Königs Wusterhausen Temperature Yesterday

Maximum temperature yesterday: 68 °F (at 3:20 PM)
Minimum temperature yesterday: 45 °F (at 5:50 AM)
Average temperature yesterday: 57 °F

High & Low Weather Summary for the Past Weeks

 TemperatureHumidityPressure
High73 °F (May 6, 2:20 PM)100% (Apr 25, 12:50 AM)30.39 "Hg (Apr 25, 12:50 AM)
Low30 °F (Apr 29, 5:20 AM)25% (May 6, 3:20 PM)29.47 "Hg (Apr 26, 4:20 AM)
Average48 °F65%29.99 "Hg
* Reported Apr 21 5:20 PM — May 6 5:20 PM, Königs Wusterhausen, Weather by CustomWeather, © 2016

Note: Actual official high and low records may vary slightly from our data, if they occured in-between our weather recording intervals... More about our weather records

Advertising

Königs Wusterhausen Weather History for the Previous 24 Hours

Scroll right to see more
 ConditionsComfort  
Time TempWeatherWind HumidityBarometerVisibility
5:20 PM
Fri, May 6
73 °FPassing clouds.12 mph29%30.07 "HgN/A
4:50 PM73 °FPassing clouds.10 mph29%30.07 "HgN/A
4:20 PM72 °FPassing clouds.12 mph29%30.07 "HgN/A
3:50 PM73 °FPassing clouds.12 mph27%30.09 "HgN/A
3:20 PM72 °FPassing clouds.10 mph25%30.09 "HgN/A
2:50 PM72 °FPassing clouds.12 mph29%30.09 "HgN/A
2:20 PM73 °FPassing clouds.10 mph31%30.12 "HgN/A
1:50 PM72 °FPassing clouds.13 mph31%30.12 "HgN/A
1:20 PM72 °FPassing clouds.10 mph31%30.12 "HgN/A
12:50 PM70 °FPassing clouds.10 mph35%30.15 "HgN/A
12:20 PM70 °FPassing clouds.9 mph33%30.15 "HgN/A
11:50 AM68 °FPassing clouds.12 mph38%30.15 "HgN/A
11:20 AM68 °FPassing clouds.9 mph40%30.15 "HgN/A
10:50 AM68 °FPassing clouds.12 mph43%30.18 "HgN/A
10:20 AM66 °FPassing clouds.10 mph46%30.18 "HgN/A
9:50 AM64 °FPassing clouds.7 mph49%30.18 "HgN/A
9:20 AM63 °FPassing clouds.6 mph52%30.18 "HgN/A
8:50 AM61 °FPassing clouds.6 mph59%30.18 "HgN/A
8:20 AM57 °FSunny.6 mph63%30.18 "Hg10 mi
7:50 AM54 °FPassing clouds.5 mph72%30.21 "HgN/A
7:20 AM52 °FSunny.6 mph77%30.18 "Hg10 mi
6:50 AM50 °FSunny.6 mph76%30.18 "Hg10 mi
6:20 AM46 °FClear.5 mph82%30.18 "Hg10 mi
5:50 AM46 °FClear.7 mph82%30.18 "Hg10 mi
5:20 AM46 °FClear.5 mph82%30.18 "Hg10 mi
4:50 AM46 °FClear.6 mph82%30.18 "Hg10 mi
4:20 AM46 °FClear.3 mph82%30.18 "Hg10 mi
3:50 AM46 °FClear.7 mph82%30.21 "Hg10 mi
3:20 AM46 °FClear.8 mph82%30.21 "Hg10 mi
2:50 AM48 °FClear.6 mph76%30.21 "Hg10 mi
2:20 AM48 °FClear.9 mph76%30.21 "Hg10 mi
1:50 AM50 °FClear.8 mph71%30.21 "Hg10 mi
1:20 AM50 °FClear.7 mph71%30.21 "Hg10 mi
12:50 AM52 °FClear.7 mph72%30.21 "Hg10 mi
12:20 AM52 °FClear.7 mph72%30.21 "Hg10 mi
11:50 PM
Thu, May 5
52 °FClear.6 mph72%30.24 "Hg10 mi
11:20 PM54 °FClear.6 mph67%30.24 "Hg10 mi
10:50 PM54 °FClear.5 mph63%30.24 "Hg10 mi
10:20 PM55 °FClear.5 mph63%30.24 "Hg10 mi
9:50 PM55 °FClear.3 mph59%30.24 "Hg10 mi
9:20 PM57 °FSunny.5 mph59%30.24 "Hg10 mi
8:50 PM59 °FSunny.5 mph55%30.24 "Hg10 mi
8:20 PM63 °FSunny.3 mph45%30.24 "Hg10 mi
7:50 PM64 °FSunny.3 mph46%30.24 "Hg10 mi
7:20 PM64 °FSunny.1 mph43%30.24 "Hg10 mi
6:50 PM66 °FPassing clouds.6 mph37%30.24 "HgN/A
6:20 PM66 °FSunny.2 mph37%30.24 "Hg10 mi
Weather by CustomWeather, © 2016

See weather overviewHow to use our weather pages